Date String (YYYY-MM-DD hh:mm:ss) UTC,Instrument flags,absolute air pressure of the measurement (hPa),sample flow rate (lpm),inlet stack bypass flow (lpm),air temperature of the measurement (°C),ambient temperature measured by the external sensor (°C),aerosol sample conditioner tube jacket temperature (°C),OPC LED temperature (°C),internal box temperature (°C),relative humidity of the measurement (%),span deviation,mass concentration of particles derived from Lorenz-Mie calculation of OPC scattering (μg/m³),mass concentration of particles derived from Lorenz-Mie calculation of OPC scattering (μg/m³),mass concentration of particles derived from Lorenz-Mie calculation of OPC scattering (μg/m³)
DateTimeUTC,F1_M11,P_M11,Q1_M11,Q2_M11,T1_M11,T2_M11,T3_M11,T4_M11,T5_M11,U1_M11,ZSPAN_M11,X0_M11,X2_M11,X1_M11
2024-05-13 01:00:00,SystemResetWarning,0826.1,5.00,000.00,024.6,023.5,000.0,032.9,026.3,027.1,0000.0,0004.85,0002.31,0001.82
2024-05-13 01:01:00,SystemResetWarning,0826.2,5.01,000.00,024.7,023.7,000.0,032.9,026.4,027.3,0000.0,0004.84,0002.28,0001.83
2024-05-13 01:02:00,SystemResetWarning,0826.2,5.00,000.00,024.7,023.9,000.0,032.9,026.5,027.4,0000.0,0006.06,0002.28,0001.82
2024-05-13 01:03:00,SystemResetWarning,0826.2,4.99,000.00,024.8,024.0,000.0,032.9,026.6,026.4,0000.0,0006.06,0002.29,0001.83
2024-05-13 01:04:00,SystemResetWarning,0826.2,4.99,000.00,024.8,024.2,000.0,032.9,026.6,025.4,0000.0,0006.16,0002.31,0001.82
2024-05-13 01:05:00,SystemResetWarning,0826.2,5.00,000.00,024.9,024.3,000.0,033.0,026.7,025.5,0000.0,0006.08,0002.26,0001.82
2024-05-13 01:06:00,SystemResetWarning,0826.2,5.01,000.00,024.9,024.4,000.0,033.0,026.7,025.2,0000.0,0005.79,0002.28,0001.83
2024-05-13 01:07:00,SystemResetWarning,0826.3,5.01,000.00,025.0,024.5,000.0,033.0,026.8,025.3,0000.0,0005.06,0002.28,0001.83
2024-05-13 01:08:00,SystemResetWarning,0826.3,5.00,000.00,025.0,024.6,000.0,033.0,026.9,026.0,0000.0,0005.03,0002.29,0001.83
2024-05-13 01:09:00,SystemResetWarning,0826.3,4.99,000.00,025.1,024.7,000.0,033.1,027.0,025.6,0000.0,0005.00,0002.29,0001.84
2024-05-13 01:10:00,SystemResetWarning,0826.4,5.00,000.00,025.1,024.7,000.0,033.1,027.0,024.8,0000.0,0005.04,0002.33,0001.85
2024-05-13 01:11:00,SystemResetWarning,0826.3,5.00,000.00,025.1,024.0,000.0,033.2,026.6,025.0,0000.0,0004.93,0002.30,0001.84
2024-05-13 01:12:00,SystemResetWarning,0826.3,5.00,000.00,024.7,022.1,000.0,033.3,025.6,027.5,0000.0,0004.92,0002.32,0001.83
2024-05-13 01:13:00,SystemResetWarning,0826.3,5.01,000.00,024.5,021.9,000.0,033.2,025.4,027.5,0000.0,0003.59,0002.32,0001.84
2024-05-13 01:14:00,SystemResetWarning,0826.3,5.01,000.00,024.4,022.2,000.0,033.1,025.5,027.3,0000.0,0003.68,0002.32,0001.84
2024-05-13 01:15:00,SystemResetWarning,0826.4,4.99,000.00,024.4,022.5,000.0,033.0,025.8,027.8,0000.0,0004.12,0002.35,0001.85
2024-05-13 01:16:00,SystemResetWarning,0826.4,5.00,000.00,024.5,022.9,000.0,032.9,026.0,026.7,0000.0,0004.61,0002.43,0001.87
2024-05-13 01:17:00,SystemResetWarning,0826.4,5.00,000.00,024.5,023.2,000.0,032.9,026.1,026.5,0000.0,0004.67,0002.46,0001.87
2024-05-13 01:18:00,SystemResetWarning,0826.4,5.00,000.00,024.5,023.5,000.0,032.9,026.3,026.5,0000.0,0004.72,0002.46,0001.86
2024-05-13 01:19:00,SystemResetWarning,0826.4,5.00,000.00,024.6,023.7,000.0,032.9,026.3,027.1,0000.0,0005.15,0002.48,0001.86
2024-05-13 01:20:00,SystemResetWarning,0826.4,5.00,000.00,024.6,023.8,000.0,032.9,026.4,027.4,0000.0,0006.59,0002.46,0001.86
2024-05-13 01:21:00,SystemResetWarning,0826.4,5.00,000.00,024.7,024.0,000.0,032.9,026.5,027.4,0000.0,0006.73,0002.47,0001.84
2024-05-13 01:22:00,SystemResetWarning,0826.4,4.99,000.00,024.7,024.1,000.0,032.9,026.6,027.2,0000.0,0006.99,0002.50,0001.84
2024-05-13 01:23:00,SystemResetWarning,0826.4,5.01,000.00,024.8,024.3,000.0,032.9,026.7,027.4,0000.0,0007.20,0002.50,0001.83
2024-05-13 01:24:00,SystemResetWarning,0826.4,5.00,000.00,024.9,024.4,000.0,033.0,026.7,027.8,0000.0,0007.17,0002.47,0001.82
2024-05-13 01:25:00,SystemResetWarning,0826.4,4.99,000.00,024.9,024.5,000.0,033.0,026.8,028.0,0000.0,0007.22,0002.47,0001.80
2024-05-13 01:26:00,SystemResetWarning,0826.5,4.99,000.00,025.0,024.6,000.0,033.0,026.8,027.9,0000.0,0007.02,0002.44,0001.81
2024-05-13 01:27:00,SystemResetWarning,0826.6,5.00,000.00,025.0,024.7,000.0,033.1,026.9,028.0,0000.0,0007.27,0002.38,0001.80
2024-05-13 01:28:00,SystemResetWarning,0826.6,5.01,000.00,025.1,024.7,000.0,033.1,027.0,027.1,0000.0,0007.33,0002.34,0001.78
2024-05-13 01:29:00,SystemResetWarning,0826.6,5.00,000.00,025.2,024.8,000.0,033.1,027.1,026.0,0000.0,0007.32,0002.34,0001.78
2024-05-13 01:30:00,SystemResetWarning,0826.6,4.99,000.00,025.2,024.4,000.0,033.2,026.8,025.5,0000.0,0007.26,0002.36,0001.79
2024-05-13 01:31:00,SystemResetWarning,0826.6,4.98,000.00,024.8,022.3,000.0,033.3,025.7,024.7,0000.0,0005.52,0002.35,0001.79
2024-05-13 01:32:00,SystemResetWarning,0826.6,5.03,000.00,024.5,021.8,000.0,033.3,025.4,024.9,0000.0,0005.41,0002.34,0001.79
2024-05-13 01:33:00,SystemResetWarning,0826.6,4.99,000.00,024.4,022.1,000.0,033.2,025.5,023.8,0000.0,0004.95,0002.25,0001.78
2024-05-13 01:34:00,SystemResetWarning,0826.6,5.01,000.00,024.4,022.4,000.0,033.0,025.7,023.8,0000.0,0004.76,0002.26,0001.78
2024-05-13 01:35:00,SystemResetWarning,0826.7,5.01,000.00,024.4,022.8,000.0,033.0,026.0,023.6,0000.0,0004.74,0002.25,0001.76
2024-05-13 01:36:00,SystemResetWarning,0826.8,5.00,000.00,024.5,023.1,000.0,032.9,026.1,023.5,0000.0,0004.49,0002.19,0001.74
2024-05-13 01:37:00,SystemResetWarning,0826.8,5.00,000.00,024.5,023.4,000.0,032.9,026.3,023.6,0000.0,0005.04,0002.15,0001.70
2024-05-13 01:38:00,SystemResetWarning,0826.8,4.99,000.00,024.6,023.6,000.0,032.9,026.4,023.8,0000.0,0004.25,0002.12,0001.68
2024-05-13 01:39:00,SystemResetWarning,0826.9,5.01,000.00,024.7,023.8,000.0,032.9,026.5,024.2,0000.0,0004.70,0002.11,0001.66
2024-05-13 01:40:00,SystemResetWarning,0826.9,5.01,000.00,024.7,024.0,000.0,032.9,026.5,024.4,0000.0,0004.79,0002.11,0001.66
2024-05-13 01:41:00,SystemResetWarning,0826.9,4.99,000.00,024.8,024.2,000.0,032.9,026.6,024.8,0000.0,0004.80,0002.12,0001.66
2024-05-13 01:42:00,SystemResetWarning,0827.0,5.00,000.00,024.8,024.3,000.0,032.9,026.7,024.1,0000.0,0004.81,0002.12,0001.66
2024-05-13 01:43:00,SystemResetWarning,0827.0,5.00,000.00,024.9,024.4,000.0,033.0,026.7,023.5,0000.0,0004.83,0002.12,0001.65
2024-05-13 01:44:00,SystemResetWarning,0827.0,5.00,000.00,025.0,024.5,000.0,033.0,026.8,026.1,0000.0,0004.93,0002.15,0001.65
2024-05-13 01:45:00,SystemResetWarning,0827.1,5.00,000.00,025.0,024.6,000.0,033.0,026.9,028.2,0000.0,0006.13,0002.18,0001.68
2024-05-13 01:46:00,SystemResetWarning,0827.1,5.00,000.00,025.1,024.7,000.0,033.1,026.9,028.8,0000.0,0006.68,0002.29,0001.75
2024-05-13 01:47:00,SystemResetWarning,0827.1,5.00,000.00,025.1,024.7,000.0,033.1,027.0,028.9,0000.0,0007.22,0002.42,0001.82
2024-05-13 01:48:00,SystemResetWarning,0827.1,5.00,000.00,025.2,024.8,000.0,033.2,027.1,028.6,0000.0,0007.68,0002.53,0001.87
2024-05-13 01:49:00,SystemResetWarning,0827.2,5.00,000.00,025.2,024.9,000.0,033.2,027.1,029.1,0000.0,0008.70,0002.61,0001.94
2024-05-13 01:50:00,SystemResetWarning,0827.3,5.01,000.00,025.3,024.9,000.0,033.2,027.1,029.7,0000.0,0008.78,0002.67,0001.99
2024-05-13 01:51:00,SystemResetWarning,0827.3,5.00,000.00,025.3,025.0,000.0,033.3,027.2,030.4,0000.0,0009.09,0002.78,0002.06
2024-05-13 01:52:00,SystemResetWarning,0827.4,5.00,000.00,025.4,025.0,000.0,033.3,027.2,030.2,0000.0,0009.64,0002.91,0002.15
2024-05-13 01:53:00,SystemResetWarning,0827.4,5.00,000.00,025.4,025.1,000.0,033.4,027.3,029.8,0000.0,0009.75,0003.05,0002.24
2024-05-13 01:54:00,SystemResetWarning,0827.4,4.99,000.00,025.4,025.1,000.0,033.4,027.3,030.0,0000.0,0009.98,0003.16,0002.35
2024-05-13 01:55:00,SystemResetWarning,0827.5,4.99,000.00,025.5,025.1,000.0,033.5,027.4,030.0,0000.0,0010.21,0003.28,0002.46
2024-05-13 01:56:00,SystemResetWarning,0827.7,5.01,000.00,025.5,025.2,000.0,033.5,027.4,030.2,0000.0,0009.81,0003.36,0002.56
2024-05-13 01:57:00,SystemResetWarning,0827.7,5.00,000.00,025.6,025.2,000.0,033.5,027.4,030.1,0000.0,0009.83,0003.36,0002.61
2024-05-13 01:58:00,SystemResetWarning,0827.5,5.00,000.00,025.6,025.3,000.0,033.6,027.5,030.1,0000.0,0009.73,0003.39,0002.67
2024-05-13 01:59:00,SystemResetWarning,0827.6,4.99,000.00,025.6,025.3,000.0,033.6,027.5,030.1,0000.0,0009.86,0003.45,0002.75
